Memphis, TN

5:03 PM CDT on September 24, 2016 (GMT -0500)
Memphis International

Weather History for KMEM - November, 2013

Change the Weather History Date:

Sunday, November 17, 2013

  Actual Average Record
Temperature  
Mean Temperature 70 °F 53 °F  
Max Temperature 77 °F 62 °F 84 °F (1958)
Min Temperature 62 °F 43 °F 17 °F (1880)
Degree Days  
Heating Degree Days 0 13  
Month to date heating degree days 190 170  
Since 1 July heating degree days 303 301  
Cooling Degree Days 5 0  
Month to date cooling degree days 5 11  
Year to date cooling degree days 2242 2254  
Growing Degree Days 20 (Base 50)    
Moisture  
Dew Point 63 °F    
Average Humidity 62    
Maximum Humidity 93    
Minimum Humidity 31    
Precipitation  
Precipitation 0.84 in 0.19 in 6.54 in (1906)
Month to date precipitation 1.22 2.85  
Year to date precipitation 53.16 45.30  
Snow  
Snow 0.00 in 0.00 in 0.70 in (1889)
Month to date snowfall 0.0 0.0  
Since 1 July snowfall 0.0 0.0  
Since 1 September snowfall 0.0 0.0  
Snow Depth 0.00 in    
Sea Level Pressure  
Sea Level Pressure 29.79 in    
Wind  
Wind Speed 15 mph (SSW)    
Max Wind Speed 25 mph    
Max Gust Speed 36 mph    
Visibility 9 miles    
Events Rain    
T = Trace of Precipitation, MM = Missing Value Source: NWS Daily Summary

Daily Weather History Graph

Daily Weather History Graph

Search for Another Location

Airport or City:

Trip Planner

Search our weather history database for the weather conditions in past years. The results will help you decide how hot, cold, wet, or windy it might be!

Date:

Astronomy

Nov. 17, 2013 Rise Set
Actual Time 6:36 AM CST 4:52 PM CST
Civil Twilight 6:09 AM CST 5:19 PM CST
Nautical Twilight 5:38 AM CST 5:50 PM CST
Astronomical Twilight 5:08 AM CST 6:20 PM CST
Moon 5:09 PM CST (11/17) 6:31 AM CST (11/17)
Length of Visible Light 11h 10m
Length of Day
10h 16m
Full, 100% of the Moon is Illuminated
Nov 17
Full
Nov 25
Last Quarter
Dec 2
New
Dec 9
First Quarter
Dec 17
Full

Hourly Weather History & Observations

Time (CST) Temp. Dew Point Humidity Pressure Visibility Wind Dir Wind Speed Gust Speed Precip Events Conditions
12:54 AM 69.1 °F 63.0 °F 81% 29.85 in 10.0 mi South 23.0 mph 34.5 mph N/A   Overcast
1:54 AM 69.1 °F 63.0 °F 81% 29.84 in 10.0 mi South 20.7 mph 28.8 mph N/A   Overcast
2:54 AM 69.1 °F 63.0 °F 81% 29.81 in 10.0 mi South 21.9 mph 27.6 mph N/A   Mostly Cloudy
3:17 AM 69.8 °F 64.4 °F 83% 29.81 in 10.0 mi South 19.6 mph 27.6 mph 0.00 in   Overcast
3:54 AM 69.1 °F 64.0 °F 84% 29.78 in 10.0 mi South 19.6 mph 28.8 mph 0.01 in Rain Light Rain
4:09 AM 68.0 °F 64.4 °F 88% 29.79 in 9.0 mi South 19.6 mph 28.8 mph 0.01 in Rain Light Rain
4:22 AM 68.0 °F 64.4 °F 88% 29.78 in 10.0 mi South 18.4 mph 29.9 mph 0.01 in Rain Light Rain
4:44 AM 68.0 °F 64.4 °F 88% 29.77 in 8.0 mi South 16.1 mph 29.9 mph 0.04 in Rain Heavy Rain
4:54 AM 68.0 °F 64.9 °F 90% 29.77 in 2.5 mi South 18.4 mph 24.2 mph 0.12 in Rain Heavy Rain
5:02 AM 68.0 °F 64.4 °F 88% 29.78 in 7.0 mi South 15.0 mph 24.2 mph 0.06 in Rain Light Rain
5:12 AM 68.0 °F 64.4 °F 88% 29.78 in 9.0 mi South 13.8 mph - 0.07 in Rain Light Rain
5:39 AM 66.2 °F 64.4 °F 94% 29.77 in 5.0 mi South 21.9 mph 28.8 mph 0.13 in Rain Rain
5:54 AM 66.9 °F 64.9 °F 93% 29.77 in 7.0 mi South 15.0 mph 28.8 mph 0.14 in Rain Light Rain
6:33 AM 66.2 °F 64.4 °F 94% 29.78 in 2.5 mi South 21.9 mph 28.8 mph 0.24 in Rain Heavy Rain
6:42 AM 66.2 °F 64.4 °F 94% 29.79 in 3.0 mi South 16.1 mph 28.8 mph 0.33 in Rain Rain
6:46 AM 66.2 °F 64.4 °F 94% 29.78 in 4.0 mi South 17.3 mph - 0.34 in Rain Rain
6:54 AM 66.9 °F 64.9 °F 93% 29.77 in 5.0 mi South 17.3 mph - 0.38 in Rain Light Rain
7:07 AM 66.2 °F 64.4 °F 94% 29.78 in 7.0 mi South 15.0 mph - 0.01 in Rain Light Rain
7:21 AM 66.2 °F 64.4 °F 94% 29.79 in 9.0 mi South 15.0 mph - 0.02 in Rain Light Rain
7:54 AM 68.0 °F 64.9 °F 90% 29.78 in 6.0 mi South 16.1 mph 23.0 mph 0.04 in Rain Light Rain
8:07 AM 68.0 °F 64.4 °F 88% 29.79 in 8.0 mi SSW 13.8 mph 23.0 mph 0.01 in Rain Light Rain
8:54 AM 69.1 °F 66.0 °F 90% 29.78 in 10.0 mi SSW 19.6 mph 29.9 mph 0.13 in Rain Light Rain
9:54 AM 70.0 °F 66.9 °F 90% 29.78 in 10.0 mi SSW 13.8 mph 28.8 mph 0.02 in Rain Light Rain
10:54 AM 71.1 °F 66.9 °F 87% 29.77 in 10.0 mi SSW 17.3 mph 26.5 mph 0.00 in   Overcast
11:54 AM 73.0 °F 68.0 °F 84% 29.74 in 10.0 mi SSW 17.3 mph 26.5 mph N/A   Overcast
12:05 PM 73.4 °F 68.0 °F 83% 29.75 in 10.0 mi SSW 19.6 mph 32.2 mph N/A   Overcast
12:39 PM 73.4 °F 68.0 °F 83% 29.73 in 10.0 mi SW 11.5 mph 26.5 mph N/A   Mostly Cloudy
12:54 PM 73.9 °F 68.0 °F 82% 29.73 in 10.0 mi SW 20.7 mph 26.5 mph N/A   Mostly Cloudy
1:01 PM 73.4 °F 68.0 °F 83% 29.73 in 10.0 mi SW 11.5 mph 26.5 mph N/A   Overcast
1:54 PM 75.0 °F 69.1 °F 82% 29.72 in 10.0 mi SW 17.3 mph 24.2 mph N/A   Mostly Cloudy
1:59 PM 75.2 °F 68.0 °F 78% 29.73 in 10.0 mi SSW 10.4 mph 27.6 mph N/A   Mostly Cloudy
2:36 PM 77.0 °F 69.8 °F 78% 29.73 in 10.0 mi SSW 15.0 mph 23.0 mph N/A   Scattered Clouds
2:54 PM 77.0 °F 69.1 °F 76% 29.72 in 10.0 mi SW 13.8 mph - N/A   Scattered Clouds
3:54 PM 75.9 °F 69.1 °F 79% 29.73 in 10.0 mi SSW 11.5 mph - N/A   Scattered Clouds
4:54 PM 75.0 °F 69.1 °F 82% 29.76 in 10.0 mi SSW 11.5 mph - N/A   Scattered Clouds
5:54 PM 73.9 °F 69.1 °F 85% 29.79 in 10.0 mi SSW 8.1 mph - N/A   Partly Cloudy
6:54 PM 73.0 °F 69.1 °F 87% 29.81 in 10.0 mi SSW 11.5 mph - N/A   Partly Cloudy
7:54 PM 73.0 °F 69.1 °F 87% 29.86 in 10.0 mi NW 16.1 mph 19.6 mph N/A   Mostly Cloudy
8:54 PM 69.1 °F 37.9 °F 32% 29.89 in 10.0 mi NNW 12.7 mph 18.4 mph N/A   Scattered Clouds
9:54 PM 64.9 °F 37.0 °F 36% 29.94 in 10.0 mi NNW 8.1 mph - N/A   Scattered Clouds
10:54 PM 64.0 °F 35.1 °F 34% 29.97 in 10.0 mi NNW 5.8 mph - N/A   Mostly Cloudy
11:54 PM 62.1 °F 35.1 °F 37% 29.99 in 10.0 mi North 5.8 mph - N/A   Mostly Cloudy